TimeMDT,TemperatureF,Dew PointF,Humidity,Sea Level PressureIn,VisibilityMPH,Wind Direction,Wind SpeedMPH,Gust SpeedMPH,PrecipitationIn,Events,Conditions,WindDirDegrees,DateUTC
12:15 AM,57.2,46.4,67,30.15,10.0,North,5.8,-,N/A,,Mostly Cloudy,10,2013-09-15 06:15:00
12:35 AM,57.2,46.4,67,30.15,10.0,North,8.1,-,N/A,,Overcast,350,2013-09-15 06:35:00
12:55 AM,55.4,46.4,72,30.16,10.0,North,9.2,-,N/A,,Overcast,350,2013-09-15 06:55:00
1:15 AM,55.4,46.4,72,30.16,10.0,North,9.2,-,N/A,,Mostly Cloudy,350,2013-09-15 07:15:00
1:35 AM,55.4,46.4,72,30.16,10.0,North,6.9,-,N/A,,Mostly Cloudy,10,2013-09-15 07:35:00
1:55 AM,55.4,46.4,72,30.16,10.0,North,8.1,-,N/A,,Overcast,360,2013-09-15 07:55:00
2:15 AM,55.4,46.4,72,30.17,10.0,North,10.4,-,N/A,,Overcast,360,2013-09-15 08:15:00
2:35 AM,55.4,46.4,72,30.17,10.0,North,9.2,-,N/A,,Overcast,350,2013-09-15 08:35:00
2:55 AM,55.4,46.4,72,30.16,10.0,North,4.6,-,N/A,,Overcast,10,2013-09-15 08:55:00
3:15 AM,57.2,46.4,67,30.16,10.0,NE,8.1,-,N/A,,Overcast,40,2013-09-15 09:15:00
3:55 AM,57.2,46.4,67,30.17,10.0,North,3.5,-,N/A,,Overcast,360,2013-09-15 09:55:00
4:15 AM,55.4,46.4,72,30.17,10.0,North,8.1,-,N/A,,Mostly Cloudy,360,2013-09-15 10:15:00
4:35 AM,55.4,46.4,72,30.18,10.0,NNE,4.6,-,N/A,,Mostly Cloudy,30,2013-09-15 10:35:00
4:55 AM,55.4,46.4,72,30.18,10.0,North,9.2,-,N/A,,Overcast,10,2013-09-15 10:55:00
5:15 AM,55.4,46.4,72,30.18,10.0,South,4.6,-,N/A,,Overcast,190,2013-09-15 11:15:00
5:35 AM,53.6,48.2,82,30.18,10.0,Calm,Calm,-,N/A,,Mostly Cloudy,0,2013-09-15 11:35:00
5:55 AM,51.8,48.2,88,30.18,10.0,Calm,Calm,-,N/A,,Mostly Cloudy,0,2013-09-15 11:55:00
6:15 AM,48.2,46.4,93,30.19,10.0,Calm,Calm,-,N/A,,Mostly Cloudy,0,2013-09-15 12:15:00
6:35 AM,50.0,48.2,94,30.19,10.0,Calm,Calm,-,N/A,,Overcast,0,2013-09-15 12:35:00
6:51 AM,48.2,48.2,100,30.19,10.0,Calm,Calm,-,N/A,,Scattered Clouds,0,2013-09-15 12:51:00
7:51 AM,50.0,48.2,94,30.21,10.0,Calm,Calm,-,N/A,,Mostly Cloudy,0,2013-09-15 13:51:00
8:51 AM,51.8,51.8,100,30.22,10.0,Calm,Calm,-,N/A,,Mostly Cloudy,0,2013-09-15 14:51:00
9:51 AM,53.6,51.8,94,30.23,10.0,Calm,Calm,-,N/A,,Overcast,0,2013-09-15 15:51:00
10:51 AM,57.2,51.8,82,30.24,10.0,North,11.5,17.3,N/A,,Mostly Cloudy,360,2013-09-15 16:51:00
11:51 AM,64.4,51.8,64,30.21,10.0,North,11.5,-,N/A,,Mostly Cloudy,350,2013-09-15 17:51:00
12:51 PM,64.4,48.2,56,30.22,10.0,NNE,5.8,-,N/A,,Mostly Cloudy,20,2013-09-15 18:51:00
1:55 PM,66.2,48.2,52,30.20,10.0,Calm,Calm,-,N/A,,Mostly Cloudy,0,2013-09-15 19:55:00
2:53 PM,62.6,46.4,55,30.21,10.0,South,12.7,19.6,N/A,,Overcast,190,2013-09-15 20:53:00
3:51 PM,60.8,48.2,63,30.20,10.0,Calm,Calm,-,N/A,,Mostly Cloudy,0,2013-09-15 21:51:00
4:52 PM,59.0,53.6,82,30.19,10.0,NNW,6.9,-,N/A,,Mostly Cloudy,330,2013-09-15 22:52:00
5:51 PM,62.6,51.8,68,30.19,10.0,North,9.2,-,N/A,,Overcast,350,2013-09-15 23:51:00
6:54 PM,60.8,51.8,72,30.18,10.0,NNW,6.9,-,N/A,,Mostly Cloudy,340,2013-09-16 00:54:00
7:53 PM,57.2,51.8,82,30.18,10.0,North,9.2,-,N/A,,Scattered Clouds,350,2013-09-16 01:53:00
9:15 PM,53.6,51.8,94,30.20,10.0,Calm,Calm,-,N/A,,Clear,0,2013-09-16 03:15:00
9:35 PM,53.6,51.8,94,30.20,10.0,West,3.5,-,N/A,,Clear,280,2013-09-16 03:35:00
9:55 PM,53.6,50.0,88,30.20,8.0,Calm,Calm,-,N/A,,Mostly Cloudy,0,2013-09-16 03:55:00
10:15 PM,53.6,51.8,94,30.20,10.0,NE,3.5,-,N/A,,Overcast,50,2013-09-16 04:15:00
10:35 PM,53.6,50.0,88,30.20,10.0,Calm,Calm,-,N/A,,Overcast,0,2013-09-16 04:35:00
11:15 PM,51.8,50.0,94,30.20,10.0,Calm,Calm,-,N/A,,Scattered Clouds,0,2013-09-16 05:15:00
11:35 PM,51.8,50.0,94,30.20,10.0,Calm,Calm,-,N/A,,Overcast,0,2013-09-16 05:35:00
11:55 PM,50.0,48.2,94,30.20,10.0,Calm,Calm,-,N/A,,Overcast,0,2013-09-16 05:55:00